Weather in Vyatskoye

Russia / Mari El Republic     56°46′47″N   48°31′06″E
temp.,
°C
wind,
m/s
gust,
m/s
humid.,
%
clouds,
%
prec.,
mm/h
press.,
hPa
HPBL,
m
2 march, tue
tue200:00−7sw71395100 0.8 1008527
03:00−4sw71496100 3.3 1004653
06:00−2sw71496100 2.4 999602
09:000w61198100 3.6 997610
12:000w61199100 1.9 995708
15:000wnw71296100 2.9 996816
18:00−2w5129494 0.2 996444
21:00−2nw8149392 2.5 998658
3 march, wed
wed300:00−5wnw5109497 0.3 998349
03:00−5w499699 0.7 999323
06:00−6wnw5109699 0.5 999409
09:00−6nw51094100 0.8 1000551
12:00−4nw71091100 0.6 1001743
15:00−5nw6988100 0.8 1003763
18:00−6wnw51092100 0.1 1004799
21:00−8wnw51295100 0.3 1005454
4 march, thu
thu400:00−11wsw389866 0.1 1004167
03:00−8wsw499583 0.3 1004312
06:00−8sw489793 0.2 1003240
09:00−5sw5109597 0.4 1001468
12:00−3sw71294100 0.4 998806
15:00−2sw71293100 1.1 995876
18:00−1sw71397100 1.4 991879
21:00−1wsw81596100 3.3 990968
5 march, fri
fri500:00−2w91496100 0.6 991958
03:00−7w7159091 0.8 994669
06:00−9w61393100 0.1 997605
09:00−9wnw6992100 0.2 1001519
12:00−8wnw5890100 0.0 1004509
15:00−8wnw578866 0.0 1006541
18:00−13wnw339581 0.0 100824
21:00−16nw129746 0.0 101020
6 march, sat
sat600:00−18e019956 0.0 101120
03:00−16ese229378 0.0 101021
06:00−15e2393100 0.0 100841
09:00−13ene2391100 0.0 1007172
12:00−10nne3591100 0.0 1006293
15:00−9n358967 0.0 1005348
18:00−14nw229556 0.0 100620
21:00−12wsw239773 0.1 100752